Weather History for Aurora, OR

Change the Weather History Date:

Saturday, October 12, 2013

  Actual Average Record
Temperature  
Mean Temperature 50 °F -  
Max Temperature 56 °F - 75 °F (2006)
Min Temperature 42 °F - 37 °F (2006)
Degree Days  
Heating Degree Days 16    
Month to date heating degree days 158  
Since 1 July heating degree days 277  
Cooling Degree Days 0    
Month to date cooling degree days 0  
Year to date cooling degree days 426  
Moisture  
Dew Point 46 °F    
Average Humidity 80    
Maximum Humidity 93    
Minimum Humidity 66    
Precipitation  
Precipitation 0.04 in - 1.50 in (1968)
Month to date precipitation 0.85  
Year to date precipitation 21.82  
Sea Level Pressure  
Sea Level Pressure 30.12 in    
Wind  
Wind Speed 1 mph (ESE)    
Max Wind Speed 7 mph    
Max Gust Speed 9 mph    
Visibility 10 miles    
Events Rain    
T = Trace of Precipitation, MM = Missing Value Source: NWS Daily Summary

Daily Weather History Graph

Daily Weather History Graph

Search for Another Location

Airport:

Trip Planner

Search our weather history database for the weather conditions in past years. The results will help you decide how hot, cold, wet, or windy it might be!

Date:

Astronomy

Oct. 12, 2013 Rise Set
Actual Time 7:23 AM PDT 6:30 PM PDT
Civil Twilight 6:53 AM PDT 7:00 PM PDT
Nautical Twilight 6:19 AM PDT 7:34 PM PDT
Astronomical Twilight 5:45 AM PDT 8:08 PM PDT
Moon 2:59 PM PDT (10/12) 12:16 AM PDT (10/12)
Length of Visible Light 12h 06m
Length of Day
11h 06m
First Quarter, 60% of the Moon is Illuminated
Oct 12
First Quarter
Oct 18
Full
Oct 26
Last Quarter
Nov 3
New
Nov 9
First Quarter

Hourly Weather History & Observations

Time (PDT) Temp. Windchill Dew Point Humidity Pressure Visibility Wind Dir Wind Speed Gust Speed Precip Events Conditions
12:53 AM 45.0 °F - 43.0 °F 93% 30.11 in 10.0 mi Calm Calm - N/A   Mostly Cloudy
1:53 AM 46.0 °F - 44.1 °F 93% 30.11 in 10.0 mi Calm Calm - N/A   Overcast
2:53 AM 46.0 °F - 44.1 °F 93% 30.11 in 10.0 mi Calm Calm - N/A   Overcast
3:53 AM 46.0 °F - 44.1 °F 93% 30.10 in 10.0 mi Calm Calm - N/A   Overcast
4:53 AM 46.0 °F - 45.0 °F 96% 30.10 in 9.0 mi Calm Calm - 0.01 in Rain Light Rain
5:53 AM 46.0 °F 44.8 °F 45.0 °F 96% 30.09 in 9.0 mi ESE 3.5 mph - 0.00 in   Overcast
6:53 AM 46.0 °F - 45.0 °F 96% 30.09 in 10.0 mi Calm Calm - N/A   Overcast
7:53 AM 46.0 °F - 45.0 °F 96% 30.09 in 4.0 mi Calm Calm - 0.01 in Rain Light Rain
8:53 AM 46.9 °F - 46.0 °F 97% 30.11 in 6.0 mi Calm Calm - 0.02 in   Overcast
9:53 AM 48.0 °F - 46.9 °F 96% 30.11 in 10.0 mi Calm Calm - N/A   Overcast
10:44 AM 50.0 °F - 46.4 °F 87% 30.11 in 10.0 mi Calm Calm - N/A   Overcast
10:53 AM 50.0 °F - 46.9 °F 89% 30.12 in 10.0 mi Calm Calm - N/A   Overcast
11:10 AM 51.8 °F - 46.4 °F 82% 30.11 in 10.0 mi South 4.6 mph - N/A   Overcast
11:38 AM 51.8 °F - 46.4 °F 82% 30.11 in 10.0 mi SSW 3.5 mph - N/A   Mostly Cloudy
11:53 AM 53.1 °F - 48.0 °F 83% 30.12 in 10.0 mi SSE 4.6 mph - N/A   Mostly Cloudy
12:30 PM 55.4 °F - 46.4 °F 72% 30.11 in 10.0 mi Calm Calm - N/A   Overcast
12:53 PM 53.1 °F - 46.9 °F 80% 30.12 in 10.0 mi Calm Calm - N/A   Mostly Cloudy
1:01 PM 53.6 °F - 46.4 °F 77% 30.11 in 10.0 mi Calm Calm - N/A   Mostly Cloudy
1:53 PM 55.0 °F - 45.0 °F 69% 30.11 in 10.0 mi Calm Calm - N/A   Overcast
2:53 PM 54.0 °F - 45.0 °F 72% 30.11 in 10.0 mi Calm Calm - N/A   Overcast
3:53 PM 55.0 °F - 46.0 °F 72% 30.12 in 10.0 mi North 4.6 mph - N/A   Overcast
4:53 PM 55.0 °F - 46.9 °F 74% 30.13 in 10.0 mi NE 4.6 mph - N/A   Overcast
5:53 PM 55.0 °F - 46.0 °F 72% 30.13 in 10.0 mi NE 3.5 mph - N/A   Overcast
6:53 PM 53.1 °F - 46.0 °F 77% 30.14 in 10.0 mi Calm Calm - N/A   Overcast
7:34 PM 50.0 °F - 46.4 °F 87% 30.15 in 10.0 mi Calm Calm - N/A   Mostly Cloudy
7:53 PM 50.0 °F - 46.9 °F 89% 30.15 in 10.0 mi Calm Calm - N/A   Overcast
8:15 PM 48.2 °F - 46.4 °F 93% 30.16 in 10.0 mi Calm Calm - N/A   Scattered Clouds
8:53 PM 48.0 °F - 45.0 °F 89% 30.17 in 10.0 mi Calm Calm - N/A   Clear
9:53 PM 46.0 °F - 45.0 °F 96% 30.18 in 9.0 mi Calm Calm - N/A   Clear
10:53 PM 46.9 °F - 45.0 °F 93% 30.19 in 10.0 mi Calm Calm - N/A   Clear
11:53 PM 44.1 °F - 43.0 °F 96% 30.19 in 7.0 mi Calm Calm - N/A   Clear